[[{"header":{"parameterUnit":"m.s-1","parameterCategory":1,"la1":30.2991,"la2":30.254,"lo1":-89.0895,"lo2":-89.0444,"dy":0.0017,"dx":0.0017,"nx":28,"ny":28,"refTime":"2025-07-16T03:00:00:Z","depth":0,"parameterNumber":2,"parameterNumberName":"U-component_of_WINDS"},"data":[0,0,0,0,0,0,0,0,0,0,0,0,0,0,0,0,0,0,0,0,0,0,0,0,0,0,0,0,0,0,0,0,0,0,0,0,0,0,0,0,0,0,0,0,0,0,0,0,0,0,0,0,0,0,0,0,0,0,-2.5198,-2.5196,0,-2.4997,-2.4994,-2.4992,-2.4928,-2.4929,-2.493,-2.4931,-2.4717,-2.4711,-2.4704,0,0,0,0,0,0,0,0,0,0,0,0,0,-2.5519,-2.5514,-2.5198,-2.5196,-2.5193,-2.4997,-2.4994,-2.4991,-2.4928,-2.4929,-2.493,-2.4931,-2.4719,-2.4711,-2.4704,0,0,0,0,0,0,0,0,0,0,0,0,0,-2.5355,-2.5512,-2.5199,-2.5138,-2.513,-2.4998,-2.4994,-2.4991,-2.4928,-2.4929,-2.493,-2.4932,-2.4722,-2.4712,-2.4702,-2.4613,0,0,-2.4672,-2.4668,0,0,0,0,0,0,0,0,-2.5364,-2.5343,-2.5149,-2.5142,-2.5133,-2.4989,-2.5029,-2.4864,-2.4927,-2.5004,-2.4931,-2.4932,-2.4806,-2.4789,-2.4748,-2.4603,-2.4594,-2.4671,-2.4665,-2.4661,-2.4658,0,0,0,0,0,0,0,-2.5376,-2.5351,-2.5118,-2.5146,-2.5137,-2.5118,-2.5096,-2.4997,-2.4899,-2.4998,-2.4993,-2.497,-2.4802,-2.4758,-2.4743,-2.4591,-2.4672,-2.4663,-2.4657,-2.4653,-2.4358,-2.4356,0,0,0,0,0,0,-2.5399,-2.5361,-2.5124,-2.5112,-2.5255,-2.5111,-2.5087,-2.5034,-2.49,-2.4881,-2.4969,-2.4968,-2.4774,-2.4754,-2.4735,-2.4618,-2.4661,-2.4652,-2.4646,-2.436,-2.4358,-2.4356,0,0,0,0,0,0,-2.5406,-2.5378,-2.5133,-2.5235,-2.5203,-2.5104,-2.5045,-2.5029,-2.4985,-2.4879,-2.486,-2.4943,-2.4774,-2.4749,-2.4643,-2.461,-2.4648,-2.4639,-2.4362,-2.4359,-2.4357,-2.4386,0,0,0,0,0,0,-2.5415,-2.5381,-2.5348,-2.5235,-2.5197,-2.5047,-2.5043,-2.5024,-2.4969,-2.4965,-2.4849,-2.4831,-2.4773,-2.4658,-2.4634,-2.4597,-2.4631,-2.4365,-2.4361,-2.4358,-2.4387,-2.4384,-2.4382,0,0,0,0,0,-2.5427,-2.5363,-2.5347,-2.5318,-2.5154,-2.5045,-2.5023,-2.4961,-2.4967,-2.4931,-2.4862,-2.4835,-2.4619,-2.4648,-2.462,-2.4579,-2.4366,-2.4362,-2.4358,-2.4388,-2.4385,-2.4382,0,0,0,0,0,0,-2.5472,-2.5347,-2.5327,-2.5226,-2.5147,-2.5035,-2.4988,-2.4959,-2.4875,-2.4875,-2.4799,-2.4773,-2.4672,-2.4616,-2.4651,-2.4484,-2.4491,-2.4481,-2.4524,-2.452,-2.4517,-2.453,-2.4623,0,0,0,0,0,-2.5471,-2.5396,-2.529,-2.521,-2.5172,-2.5087,-2.5037,-2.4996,-2.491,-2.4875,-2.4799,-2.4715,-2.4627,-2.4571,-2.4485,-2.438,-2.4351,-2.4338,-2.4336,-2.4334,-2.4324,-2.426,-2.4252,-2.4341,-2.4341,-2.4342,0,0,-2.5466,-2.5389,-2.5345,-2.5217,-2.5151,-2.5071,-2.5059,-2.4976,-2.4915,-2.4862,-2.4757,-2.4699,-2.4599,-2.4493,-2.4442,-2.4442,-2.4294,-2.4328,-2.4328,-2.4319,-2.4255,-2.4247,-2.4239,-2.4339,-2.4339,-2.4339,0,0,-2.5416,-2.5352,-2.5277,-2.5212,-2.5113,-2.5057,-2.5039,-2.4931,-2.489,-2.4785,-2.4743,-2.4668,-2.4521,-2.445,-2.4395,-2.4319,-2.4288,-2.4293,-2.4276,-2.4215,-2.4208,-2.4201,-2.4169,-2.4159,-2.4285,-2.4285,-2.4285,0,-2.5422,-2.5302,-2.5242,-2.516,-2.5103,-2.5055,-2.4976,-2.4915,-2.4792,-2.4752,-2.4756,-2.4567,-2.4497,-2.4372,-2.4353,-2.4312,-2.4286,-2.4303,-2.4215,-2.4207,-2.42,-2.4168,-2.4157,-2.4286,-2.4286,-2.4285,-2.4285,0,-2.5312,-2.523,-2.5181,-2.5066,-2.5004,-2.4924,-2.4848,-2.4792,-2.4757,-2.47,-2.4591,-2.4506,-2.44,-2.4368,-2.4332,-2.4237,-2.424,-2.423,-2.4234,-2.4193,-2.4162,-2.415,-2.4287,-2.4287,-2.4286,-2.4286,0,0,-2.5282,-2.5135,-2.5117,-2.5063,-2.495,-2.4884,-2.4801,-2.47,-2.4652,-2.4569,-2.4494,-2.4371,-2.4361,-2.4298,-2.4254,-2.4201,-2.4141,-2.4197,-2.4193,-2.4186,-2.4025,-2.403,-2.4017,-2.4122,-2.412,-2.4118,-2.4032,0,-2.5214,-2.5066,-2.5009,-2.4887,-2.4808,-2.4761,-2.4688,-2.4609,-2.4554,-2.4476,-2.4415,-2.4326,-2.4322,-2.4283,-2.423,-2.416,-2.4107,-2.4166,-2.4047,-2.4044,-2.4069,-2.4002,-2.4006,-2.3929,-2.402,-2.4018,-2.4016,0,-2.5115,-2.5032,-2.4903,-2.4798,-2.4763,-2.4699,-2.46,-2.4528,-2.4437,-2.44,-2.4331,-2.429,-2.4197,-2.4212,-2.4081,-2.4123,-2.4071,-2.403,-2.4025,-2.4007,-2.4024,-2.3978,-2.3904,-2.3891,-2.3998,-2.3999,-2.4001,0,-2.51,-2.4957,-2.486,-2.4816,-2.4693,-2.4648,-2.4594,-2.4504,-2.4447,-2.436,-2.4321,-2.4225,-2.417,-2.4095,-2.4028,-2.4045,-2.3902,-2.3911,-2.3864,-2.3866,-2.3832,-2.3834,-2.3744,-2.3808,-2.3808,-2.3808,-2.3809,0,-2.5027,-2.4949,-2.4852,-2.4792,-2.4702,-2.4636,-2.4547,-2.449,-2.441,-2.4336,-2.429,-2.422,-2.4138,-2.4057,-2.4004,-2.3901,-2.3878,-2.3843,-2.3828,-2.3844,-2.3848,-2.3805,-2.3807,-2.3805,-2.3806,-2.3806,-2.3807,0,-2.4994,-2.4927,-2.4817,-2.471,-2.4681,-2.4619,-2.4525,-2.4463,-2.4407,-2.4313,-2.4287,-2.4196,-2.4098,-2.4025,-2.3898,-2.3862,-2.3751,-2.3739,-2.3782,-2.3774,-2.3729,-2.3732,-2.3605,-2.3582,-2.3666,-2.3666,-2.3665,0,-2.495,-2.4888,-2.4775,-2.4723,-2.467,-2.4586,-2.4527,-2.446,-2.44,-2.4291,-2.4241,-2.4141,-2.4056,-2.3901,-2.3822,-2.3724,-2.3705,-2.3668,-2.369,-2.3706,-2.3698,-2.3701,-2.3692,-2.3663,-2.3662,-2.3662,-2.3662,0,-2.4877,-2.4846,-2.4765,-2.467,-2.4602,-2.4524,-2.4445,-2.4404,-2.4322,-2.4257,-2.4157,-2.4092,-2.3962,-2.3861,-2.3755,-2.3696,-2.3662,-2.3656,-2.3639,-2.3651,-2.3677,-2.3657,-2.3768,-2.3658,-2.3658,-2.3659,-2.3659,-2.3659,-2.4833,-2.4775,-2.4685,-2.4595,-2.4529,-2.4456,-2.4392,-2.4328,-2.4245,-2.4135,-2.41,-2.3996,-2.3903,-2.3758,-2.3698,-2.3613,-2.3612,-2.3589,-2.3582,-2.3576,-2.3574,-2.3695,-2.3594,-2.3594,-2.3594,-2.3594,-2.3594,0,-2.4753,-2.4694,-2.4612,-2.4503,-2.4431,-2.4411,-2.4322,-2.4262,-2.4172,-2.409,-2.4008,-2.3892,-2.3793,-2.3708,-2.3605,-2.3553,-2.3535,-2.3527,-2.3528,-2.3513,-2.3583,-2.3606,-2.3543,-2.3543,-2.3543,-2.3543,-2.3543,-2.3543,-2.4703,-2.4602,-2.4561,-2.4426,-2.4367,-2.4266,-2.4216,-2.4147,-2.4081,-2.3954,-2.3873,-2.3819,-2.3733,-2.3624,-2.3532,-2.3509,-2.347,-2.3465,-2.3438,-2.3503,-2.3509,-2.3515,-2.3535,-2.3459,-2.3459,-2.3374,-2.3374,-2.3373]},{"header":{"parameterUnit":"m.s-1","parameterCategory":1,"la1":30.2991,"la2":30.254,"lo1":-89.0895,"lo2":-89.0444,"dy":0.0017,"dx":0.0017,"nx":28,"ny":28,"refTime":"2025-07-16T03:00:00:Z","depth":0,"parameterNumber":3,"parameterNumberName":"V-component_of_WINDS"},"data":[0,0,0,0,0,0,0,0,0,0,0,0,0,0,0,0,0,0,0,0,0,0,0,0,0,0,0,0,0,0,0,0,0,0,0,0,0,0,0,0,0,0,0,0,0,0,0,0,0,0,0,0,0,0,0,0,0,0,0.7631,0.7631,0,0.7585,0.7585,0.7584,0.7516,0.7514,0.7513,0.7512,0.7468,0.7468,0.7468,0,0,0,0,0,0,0,0,0,0,0,0,0,0.7665,0.7665,0.7631,0.7631,0.763,0.7585,0.7584,0.7584,0.7516,0.7514,0.7513,0.7511,0.7468,0.7468,0.7468,0,0,0,0,0,0,0,0,0,0,0,0,0,0.7638,0.7665,0.7631,0.7591,0.7586,0.7585,0.7584,0.7584,0.7516,0.7514,0.7512,0.7511,0.7468,0.7468,0.7468,0.7504,0,0,0.7468,0.7468,0,0,0,0,0,0,0,0,0.764,0.7637,0.7597,0.7593,0.7589,0.7554,0.758,0.7557,0.7516,0.7543,0.7512,0.751,0.7499,0.7496,0.7491,0.7502,0.75,0.7468,0.7468,0.7468,0.7468,0,0,0,0,0,0,0,0.7641,0.7638,0.7613,0.7597,0.7592,0.7576,0.757,0.7576,0.7532,0.754,0.7535,0.7531,0.7496,0.7492,0.749,0.75,0.7468,0.7468,0.7468,0.7468,0.7541,0.7543,0,0,0,0,0,0,0.7649,0.764,0.7614,0.7612,0.761,0.7577,0.757,0.7567,0.7531,0.7524,0.7532,0.7528,0.7493,0.749,0.7488,0.753,0.7468,0.7468,0.7468,0.7539,0.7542,0.7544,0,0,0,0,0,0,0.765,0.7647,0.7616,0.7625,0.7619,0.7578,0.7575,0.7567,0.7563,0.7525,0.7517,0.7536,0.7491,0.7488,0.7501,0.7528,0.7468,0.7468,0.7537,0.754,0.7543,0.7613,0,0,0,0,0,0,0.7651,0.7648,0.766,0.7625,0.7619,0.7629,0.7577,0.7568,0.7562,0.7556,0.7526,0.752,0.7489,0.7502,0.7501,0.7526,0.7468,0.7535,0.7538,0.7542,0.7609,0.7618,0.7627,0,0,0,0,0,0.7652,0.7682,0.7661,0.7658,0.7633,0.7631,0.7627,0.7591,0.7565,0.7577,0.7554,0.752,0.7525,0.7504,0.7502,0.7528,0.7533,0.7537,0.7542,0.7605,0.7617,0.7627,0,0,0,0,0,0,0.7721,0.7676,0.7653,0.7671,0.7655,0.7619,0.7634,0.7604,0.7596,0.7591,0.7547,0.7541,0.7561,0.7545,0.7523,0.7563,0.7524,0.7528,0.7572,0.7583,0.7592,0.7596,0.7468,0,0,0,0,0,0.7738,0.7738,0.77,0.772,0.7713,0.7675,0.7673,0.7646,0.7628,0.7621,0.7598,0.7583,0.7582,0.7581,0.7577,0.7606,0.76,0.7623,0.7632,0.764,0.7645,0.7662,0.7673,0.7559,0.7559,0.7558,0,0,0.7774,0.7749,0.7752,0.7733,0.7718,0.7721,0.767,0.7675,0.7677,0.7622,0.7634,0.7617,0.7597,0.7619,0.7628,0.7607,0.7675,0.7646,0.7652,0.7653,0.7668,0.7679,0.7688,0.7562,0.7561,0.7561,0,0,0.7841,0.7821,0.7837,0.7823,0.78,0.7775,0.7779,0.7747,0.7734,0.7744,0.7704,0.7707,0.7704,0.7693,0.7687,0.7752,0.7722,0.7752,0.78,0.7817,0.7827,0.7834,0.786,0.787,0.7757,0.7757,0.7757,0,0.7888,0.789,0.7849,0.7857,0.7851,0.7801,0.7819,0.7807,0.7785,0.7783,0.7759,0.7756,0.7739,0.776,0.7776,0.7771,0.7777,0.7756,0.7828,0.7836,0.7842,0.7867,0.7876,0.7761,0.776,0.776,0.7759,0,0.7951,0.7953,0.7969,0.7948,0.7944,0.7957,0.792,0.7921,0.7895,0.7873,0.7886,0.7865,0.7857,0.7859,0.7834,0.7877,0.7865,0.7836,0.7796,0.7858,0.788,0.7889,0.7766,0.7765,0.7764,0.7763,0,0,0.8059,0.8017,0.8024,0.8015,0.7987,0.7989,0.8,0.7992,0.7995,0.7981,0.7992,0.7991,0.7965,0.7958,0.7931,0.7946,0.8003,0.7915,0.7914,0.7935,0.8052,0.8076,0.8087,0.7982,0.7984,0.7985,0.8054,0,0.8122,0.8138,0.8103,0.8129,0.8132,0.8086,0.8096,0.8081,0.8062,0.8063,0.8041,0.8043,0.8006,0.8002,0.8015,0.7993,0.8026,0.7988,0.7994,0.7995,0.8002,0.8098,0.8122,0.8188,0.8062,0.8064,0.8065,0,0.8197,0.8188,0.8214,0.8187,0.8187,0.8197,0.8188,0.8188,0.8172,0.8157,0.815,0.8119,0.8131,0.8092,0.811,0.8084,0.8085,0.8075,0.8077,0.8078,0.8035,0.8103,0.8208,0.8219,0.8078,0.8077,0.8076,0,0.8277,0.8271,0.8286,0.828,0.8248,0.8256,0.8244,0.8225,0.8223,0.8216,0.8214,0.8209,0.8206,0.8204,0.8173,0.8147,0.8195,0.8153,0.8186,0.8187,0.8199,0.8199,0.8308,0.8196,0.8196,0.8196,0.8196,0,0.8352,0.837,0.8322,0.8332,0.8352,0.8312,0.8334,0.8316,0.8301,0.8308,0.8267,0.8276,0.8234,0.8238,0.8214,0.8234,0.8233,0.8223,0.8217,0.8228,0.8229,0.8229,0.8224,0.8198,0.8198,0.8197,0.8197,0,0.8444,0.8412,0.8426,0.8395,0.8388,0.8405,0.8379,0.8388,0.8366,0.8376,0.8376,0.8343,0.8346,0.8315,0.8312,0.8296,0.8328,0.8313,0.8334,0.833,0.8365,0.8363,0.8479,0.8494,0.8371,0.8372,0.8373,0,0.8495,0.8508,0.8479,0.8481,0.847,0.8473,0.8471,0.8433,0.8433,0.8417,0.8429,0.8428,0.8426,0.8434,0.841,0.8409,0.8395,0.8436,0.8395,0.8406,0.8399,0.8399,0.8402,0.8445,0.8446,0.8448,0.8449,0,0.859,0.8574,0.8572,0.8565,0.8564,0.8557,0.8548,0.8552,0.8511,0.8514,0.8516,0.8515,0.8513,0.8514,0.8508,0.8497,0.8468,0.8462,0.847,0.8482,0.8495,0.8491,0.836,0.8459,0.8458,0.8458,0.8457,0.8457,0.8664,0.8675,0.8657,0.8657,0.8646,0.8639,0.8647,0.8626,0.8627,0.8622,0.86,0.8607,0.8593,0.8582,0.8574,0.8581,0.8562,0.8572,0.8576,0.8579,0.8587,0.8492,0.858,0.8579,0.8579,0.8579,0.8578,0,0.8759,0.8745,0.8746,0.8734,0.8735,0.8706,0.8695,0.8698,0.8705,0.8693,0.8692,0.8697,0.8699,0.8676,0.8676,0.8686,0.8672,0.8687,0.8687,0.8686,0.8603,0.8597,0.8698,0.8698,0.8698,0.8698,0.8698,0.8698,0.8808,0.8826,0.8808,0.8821,0.8807,0.8814,0.881,0.8805,0.8796,0.8802,0.8804,0.8788,0.8773,0.8772,0.8773,0.8767,0.877,0.879,0.8779,0.8703,0.8691,0.868,0.8675,0.879,0.879,0.8861,0.8862,0.8863]}]]